TimeEDT,TemperatureF,Dew PointF,Humidity,Sea Level PressureIn,VisibilityMPH,Wind Direction,Wind SpeedMPH,Gust SpeedMPH,PrecipitationIn,Events,Conditions,WindDirDegrees,DateUTC
12:15 AM,75.2,66.2,73,30.08,10.0,East,4.6,-,N/A,,Clear,100,2013-09-10 04:15:00
12:35 AM,75.2,66.2,73,30.08,10.0,Calm,Calm,-,N/A,,Clear,0,2013-09-10 04:35:00
12:53 AM,75.0,66.9,76,30.07,-9999.0,Calm,Calm,-,N/A,,Unknown,0,2013-09-10 04:53:00
12:55 AM,73.4,66.2,78,30.08,10.0,Calm,Calm,-,N/A,,Clear,0,2013-09-10 04:55:00
1:15 AM,71.6,66.2,83,30.08,10.0,Calm,Calm,-,N/A,,Clear,0,2013-09-10 05:15:00
1:35 AM,71.6,66.2,83,30.08,10.0,Calm,Calm,-,N/A,,Clear,0,2013-09-10 05:35:00
1:53 AM,73.9,66.9,79,30.07,-9999.0,ENE,3.5,-,N/A,,Unknown,70,2013-09-10 05:53:00
1:55 AM,71.6,66.2,83,30.08,10.0,Calm,Calm,-,N/A,,Clear,0,2013-09-10 05:55:00
2:15 AM,71.6,66.2,83,30.08,10.0,Calm,Calm,-,N/A,,Clear,0,2013-09-10 06:15:00
2:35 AM,71.6,66.2,83,30.08,10.0,Calm,Calm,-,N/A,,Clear,0,2013-09-10 06:35:00
2:53 AM,72.0,66.9,84,30.07,-9999.0,Calm,Calm,-,N/A,,Unknown,0,2013-09-10 06:53:00
2:55 AM,69.8,66.2,88,30.08,10.0,Calm,Calm,-,N/A,,Clear,0,2013-09-10 06:55:00
3:15 AM,69.8,66.2,88,30.08,10.0,ENE,3.5,-,N/A,,Clear,60,2013-09-10 07:15:00
3:35 AM,69.8,66.2,88,30.07,10.0,Calm,Calm,-,N/A,,Clear,0,2013-09-10 07:35:00
3:53 AM,71.1,66.0,84,30.06,-9999.0,Calm,Calm,-,N/A,,Unknown,0,2013-09-10 07:53:00
3:55 AM,69.8,66.2,88,30.07,10.0,Calm,Calm,-,N/A,,Clear,0,2013-09-10 07:55:00
4:15 AM,69.8,66.2,88,30.07,10.0,NE,3.5,-,N/A,,Clear,40,2013-09-10 08:15:00
4:35 AM,69.8,64.4,83,30.07,10.0,NE,4.6,-,N/A,,Clear,40,2013-09-10 08:35:00
4:53 AM,71.1,66.0,84,30.06,-9999.0,NE,3.5,-,N/A,,Unknown,40,2013-09-10 08:53:00
4:55 AM,69.8,66.2,88,30.08,10.0,NE,3.5,-,N/A,,Clear,50,2013-09-10 08:55:00
5:15 AM,69.8,66.2,88,30.08,10.0,Calm,Calm,-,N/A,,Clear,0,2013-09-10 09:15:00
5:35 AM,69.8,66.2,88,30.08,10.0,Calm,Calm,-,N/A,,Clear,0,2013-09-10 09:35:00
5:53 AM,70.0,66.0,87,30.07,-9999.0,NNE,4.6,-,N/A,,Unknown,30,2013-09-10 09:53:00
5:55 AM,68.0,66.2,94,30.08,10.0,NE,4.6,-,N/A,,Clear,40,2013-09-10 09:55:00
6:15 AM,69.8,66.2,88,30.09,10.0,NE,4.6,-,N/A,,Clear,50,2013-09-10 10:15:00
6:35 AM,69.8,66.2,88,30.09,10.0,NE,3.5,-,N/A,,Clear,50,2013-09-10 10:35:00
6:53 AM,71.1,66.9,87,30.08,-9999.0,NE,3.5,-,N/A,,Unknown,50,2013-09-10 10:53:00
6:55 AM,68.0,66.2,94,30.10,10.0,ENE,3.5,-,N/A,,Clear,60,2013-09-10 10:55:00
7:15 AM,68.0,66.2,94,30.10,10.0,ENE,3.5,-,N/A,,Clear,60,2013-09-10 11:15:00
7:35 AM,69.8,66.2,88,30.10,10.0,Calm,Calm,-,N/A,,Clear,0,2013-09-10 11:35:00
7:53 AM,72.0,66.9,84,30.10,-9999.0,ENE,3.5,-,N/A,,Unknown,60,2013-09-10 11:53:00
7:55 AM,69.8,68.0,94,30.11,10.0,Calm,Calm,-,N/A,,Clear,0,2013-09-10 11:55:00
8:15 AM,69.8,68.0,94,30.12,10.0,NE,3.5,-,N/A,,Clear,40,2013-09-10 12:15:00
8:35 AM,71.6,68.0,88,30.12,10.0,NE,3.5,-,N/A,,Clear,40,2013-09-10 12:35:00
8:53 AM,75.9,68.0,76,30.11,-9999.0,NE,5.8,-,N/A,,Unknown,50,2013-09-10 12:53:00
8:55 AM,73.4,68.0,83,30.13,10.0,NE,4.6,-,N/A,,Clear,50,2013-09-10 12:55:00
9:15 AM,75.2,68.0,78,30.13,10.0,ENE,3.5,-,N/A,,Clear,70,2013-09-10 13:15:00
9:35 AM,77.0,69.8,78,30.14,10.0,ENE,5.8,-,N/A,,Clear,70,2013-09-10 13:35:00
9:53 AM,81.0,70.0,69,30.13,-9999.0,East,8.1,-,N/A,,Unknown,90,2013-09-10 13:53:00
9:55 AM,78.8,69.8,74,30.14,10.0,East,8.1,-,N/A,,Clear,90,2013-09-10 13:55:00
10:15 AM,80.6,69.8,70,30.14,10.0,East,8.1,-,N/A,,Clear,80,2013-09-10 14:15:00
10:35 AM,80.6,69.8,70,30.15,10.0,East,8.1,-,N/A,,Clear,80,2013-09-10 14:35:00
10:53 AM,84.0,71.1,65,30.14,-9999.0,East,9.2,-,N/A,,Unknown,100,2013-09-10 14:53:00
10:55 AM,82.4,69.8,66,30.15,10.0,ESE,10.4,16.1,N/A,,Clear,110,2013-09-10 14:55:00
11:15 AM,80.6,69.8,70,30.15,10.0,East,5.8,-,N/A,,Scattered Clouds,100,2013-09-10 15:15:00
11:35 AM,82.4,69.8,66,30.15,10.0,East,6.9,-,N/A,,Mostly Cloudy,80,2013-09-10 15:35:00
11:53 AM,84.0,70.0,63,30.14,-9999.0,East,4.6,-,N/A,,Unknown,90,2013-09-10 15:53:00
11:55 AM,82.4,68.0,62,30.15,10.0,East,4.6,-,N/A,,Mostly Cloudy,90,2013-09-10 15:55:00
12:15 PM,82.4,69.8,66,30.15,10.0,East,4.6,-,N/A,,Scattered Clouds,90,2013-09-10 16:15:00
12:35 PM,84.2,69.8,62,30.14,10.0,East,9.2,-,N/A,,Scattered Clouds,90,2013-09-10 16:35:00
12:53 PM,86.0,70.0,59,30.12,-9999.0,ENE,5.8,-,N/A,,Unknown,60,2013-09-10 16:53:00
12:55 PM,82.4,69.8,66,30.14,10.0,ENE,4.6,-,N/A,,Scattered Clouds,60,2013-09-10 16:55:00
1:15 PM,86.0,68.0,55,30.13,10.0,NE,6.9,-,N/A,,Mostly Cloudy,40,2013-09-10 17:15:00
1:35 PM,86.0,68.0,55,30.13,10.0,East,8.1,-,N/A,,Scattered Clouds,90,2013-09-10 17:35:00
1:53 PM,90.0,69.1,50,30.11,-9999.0,East,8.1,-,N/A,,Unknown,100,2013-09-10 17:53:00
1:55 PM,87.8,66.2,49,30.12,10.0,East,9.2,-,N/A,,Clear,100,2013-09-10 17:55:00
2:15 PM,87.8,66.2,49,30.12,10.0,ENE,9.2,-,N/A,,Scattered Clouds,70,2013-09-10 18:15:00
2:35 PM,87.8,62.6,43,30.11,10.0,East,8.1,-,N/A,,Clear,90,2013-09-10 18:35:00
2:53 PM,90.0,64.9,43,30.09,-9999.0,East,9.2,-,N/A,,Unknown,100,2013-09-10 18:53:00
2:55 PM,87.8,62.6,43,30.10,10.0,East,8.1,-,N/A,,Scattered Clouds,90,2013-09-10 18:55:00
3:15 PM,87.8,64.4,46,30.09,10.0,NE,5.8,-,N/A,,Scattered Clouds,50,2013-09-10 19:15:00
3:35 PM,89.6,64.4,43,30.09,10.0,ENE,8.1,-,N/A,,Scattered Clouds,70,2013-09-10 19:35:00
3:53 PM,91.0,66.9,45,30.06,-9999.0,Variable,3.5,-,N/A,,Unknown,0,2013-09-10 19:53:00
3:55 PM,87.8,64.4,46,30.08,10.0,ESE,9.2,-,N/A,,Scattered Clouds,120,2013-09-10 19:55:00
4:15 PM,89.6,62.6,40,30.08,10.0,NE,6.9,-,N/A,,Clear,50,2013-09-10 20:15:00
4:35 PM,89.6,62.6,40,30.07,10.0,ENE,5.8,-,N/A,,Clear,70,2013-09-10 20:35:00
4:53 PM,91.0,64.9,42,30.06,-9999.0,East,8.1,-,N/A,,Unknown,90,2013-09-10 20:53:00
4:55 PM,89.6,62.6,40,30.07,10.0,East,6.9,-,N/A,,Clear,90,2013-09-10 20:55:00
5:15 PM,89.6,62.6,40,30.07,10.0,East,6.9,-,N/A,,Scattered Clouds,80,2013-09-10 21:15:00
5:35 PM,87.8,62.6,43,30.07,10.0,East,6.9,-,N/A,,Scattered Clouds,90,2013-09-10 21:35:00
5:53 PM,89.1,64.9,45,30.05,-9999.0,ENE,9.2,-,N/A,,Unknown,70,2013-09-10 21:53:00
5:55 PM,87.8,62.6,43,30.07,10.0,East,8.1,-,N/A,,Scattered Clouds,80,2013-09-10 21:55:00
6:15 PM,87.8,60.8,40,30.07,10.0,East,5.8,-,N/A,,Clear,90,2013-09-10 22:15:00
6:35 PM,87.8,60.8,40,30.07,10.0,East,4.6,-,N/A,,Clear,90,2013-09-10 22:35:00
6:53 PM,88.0,64.0,45,30.06,-9999.0,ENE,4.6,-,N/A,,Unknown,70,2013-09-10 22:53:00
6:55 PM,86.0,60.8,43,30.07,10.0,ENE,3.5,-,N/A,,Clear,70,2013-09-10 22:55:00
7:15 PM,86.0,62.6,45,30.07,10.0,Calm,Calm,-,N/A,,Clear,0,2013-09-10 23:15:00
7:35 PM,82.4,62.6,51,30.08,10.0,Calm,Calm,-,N/A,,Clear,0,2013-09-10 23:35:00
7:53 PM,82.9,64.9,54,30.07,-9999.0,Calm,Calm,-,N/A,,Unknown,0,2013-09-10 23:53:00
7:55 PM,80.6,62.6,54,30.09,10.0,Calm,Calm,-,N/A,,Clear,0,2013-09-10 23:55:00
8:15 PM,80.6,64.4,58,30.09,10.0,Calm,Calm,-,N/A,,Clear,0,2013-09-11 00:15:00
8:35 PM,80.6,64.4,58,30.10,10.0,Calm,Calm,-,N/A,,Clear,0,2013-09-11 00:35:00
8:53 PM,82.0,66.0,58,30.09,-9999.0,East,4.6,-,N/A,,Unknown,80,2013-09-11 00:53:00
8:55 PM,80.6,64.4,58,30.10,10.0,East,4.6,-,N/A,,Mostly Cloudy,90,2013-09-11 00:55:00
9:15 PM,80.6,64.4,58,30.11,10.0,East,5.8,-,N/A,,Scattered Clouds,90,2013-09-11 01:15:00
9:35 PM,78.8,66.2,65,30.12,10.0,East,3.5,-,N/A,,Clear,90,2013-09-11 01:35:00
9:53 PM,80.1,66.9,64,30.11,-9999.0,Calm,Calm,-,N/A,,Unknown,0,2013-09-11 01:53:00
9:55 PM,78.8,66.2,65,30.12,10.0,ENE,3.5,-,N/A,,Clear,70,2013-09-11 01:55:00
10:15 PM,77.0,66.2,69,30.13,10.0,ENE,3.5,-,N/A,,Clear,70,2013-09-11 02:15:00
10:35 PM,77.0,66.2,69,30.14,10.0,ENE,4.6,-,N/A,,Clear,60,2013-09-11 02:35:00
10:53 PM,77.0,66.9,71,30.12,-9999.0,NE,3.5,-,N/A,,Unknown,40,2013-09-11 02:53:00
10:55 PM,75.2,66.2,73,30.14,10.0,NE,4.6,-,N/A,,Clear,50,2013-09-11 02:55:00
11:15 PM,73.4,68.0,83,30.14,10.0,NE,5.8,-,N/A,,Clear,40,2013-09-11 03:15:00
11:35 PM,73.4,66.2,78,30.14,10.0,Calm,Calm,-,N/A,,Clear,0,2013-09-11 03:35:00
11:53 PM,75.0,66.9,76,30.13,-9999.0,Calm,Calm,-,N/A,,Unknown,0,2013-09-11 03:53:00
11:55 PM,73.4,66.2,78,30.15,10.0,Calm,Calm,-,N/A,,Clear,0,2013-09-11 03:55:00